Météo par heure à Aljezur Municipality

Ce jour, 19 Octobre, Lundi

Heure Température Précipitation Vent Pression Humidité
00:00 +17°C° 0 mm 4 m/s 751 mmHg 94%
01:00 +17°C° 0 mm 4 m/s 750 mmHg 94%
02:00 +17°C° 0 mm 4 m/s 750 mmHg 95%
03:00 +17°C° 0 mm 4 m/s 750 mmHg 94%
04:00 +16°C° 0 mm 5 m/s 750 mmHg 93%
05:00 +17°C° 0 mm 5 m/s 750 mmHg 92%
06:00 +19°C° 0 mm 6 m/s 750 mmHg 85%
07:00 +20°C° 0 mm 7 m/s 750 mmHg 79%
08:00 +22°C° 0 mm 8 m/s 750 mmHg 72%
09:00 +22°C° 0 mm 8 m/s 750 mmHg 68%
10:00 +23°C° 0 mm 8 m/s 750 mmHg 64%
11:00 +24°C° 0 mm 9 m/s 750 mmHg 59%
12:00 +23°C° 0.3 mm 8 m/s 750 mmHg 64%
13:00 +23°C° 0.3 mm 7 m/s 749 mmHg 68%
14:00 +22°C° 0.3 mm 7 m/s 749 mmHg 73%
15:00 +21°C° 0.8 mm 7 m/s 749 mmHg 78%
16:00 +21°C° 0.8 mm 7 m/s 749 mmHg 84%
17:00 +20°C° 0.8 mm 7 m/s 749 mmHg 90%
18:00 +20°C° 0.7 mm 7 m/s 749 mmHg 90%
19:00 +20°C° 0.7 mm 8 m/s 749 mmHg 90%
20:00 +21°C° 0.7 mm 8 m/s 749 mmHg 90%
21:00 +21°C° 0.5 mm 7 m/s 749 mmHg 91%
22:00 +21°C° 0.5 mm 6 m/s 749 mmHg 92%
23:00 +21°C° 0.5 mm 6 m/s 748 mmHg 93%

Demain, 20 Octobre, Mardi

Heure Température Précipitation Vent Pression Humidité
00:00 +20°C° 0 mm 4 m/s 748 mmHg 94%
01:00 +19°C° 0 mm 3 m/s 748 mmHg 96%
02:00 +18°C° 0 mm 2 m/s 747 mmHg 97%
03:00 +19°C° 0.4 mm 4 m/s 746 mmHg 96%
04:00 +19°C° 0.4 mm 5 m/s 746 mmHg 95%
05:00 +20°C° 0.4 mm 7 m/s 745 mmHg 95%
06:00 +19°C° 0.5 mm 9 m/s 744 mmHg 92%
07:00 +21°C° 0.5 mm 11 m/s 744 mmHg 89%
08:00 +22°C° 0.5 mm 13 m/s 743 mmHg 86%
09:00 +22°C° 1.3 mm 13 m/s 743 mmHg 84%
10:00 +22°C° 1.3 mm 13 m/s 743 mmHg 83%
11:00 +22°C° 1.3 mm 13 m/s 742 mmHg 82%
12:00 +19°C° 5.2 mm 11 m/s 743 mmHg 85%
13:00 +18°C° 5.2 mm 9 m/s 743 mmHg 89%
14:00 +17°C° 5.2 mm 6 m/s 743 mmHg 92%
15:00 +17°C° 2.4 mm 5 m/s 743 mmHg 93%
16:00 +16°C° 2.4 mm 5 m/s 743 mmHg 94%
17:00 +17°C° 2.4 mm 4 m/s 743 mmHg 95%
18:00 +16°C° 0.4 mm 5 m/s 744 mmHg 94%
19:00 +16°C° 0.4 mm 6 m/s 744 mmHg 94%
20:00 +16°C° 0.4 mm 7 m/s 745 mmHg 93%
21:00 +16°C° 0.2 mm 7 m/s 745 mmHg 92%
22:00 +16°C° 0.2 mm 6 m/s 745 mmHg 91%
23:00 +16°C° 0.2 mm 6 m/s 745 mmHg 90%

Après-demain, 21 Octobre, Mercredi

Heure Température Précipitation Vent Pression Humidité
00:00 +17°C° 0.2 mm 7 m/s 745 mmHg 89%
01:00 +17°C° 0.2 mm 7 m/s 745 mmHg 88%
02:00 +17°C° 0.2 mm 7 m/s 745 mmHg 88%
03:00 +17°C° 0.2 mm 7 m/s 745 mmHg 88%
04:00 +16°C° 0.2 mm 6 m/s 745 mmHg 89%
05:00 +16°C° 0.2 mm 5 m/s 745 mmHg 89%
06:00 +17°C° 0.1 mm 5 m/s 746 mmHg 86%
07:00 +17°C° 0.1 mm 5 m/s 746 mmHg 82%
08:00 +19°C° 0.1 mm 4 m/s 747 mmHg 79%
09:00 +20°C° 0.1 mm 4 m/s 747 mmHg 74%
10:00 +21°C° 0.1 mm 4 m/s 747 mmHg 69%
11:00 +22°C° 0.1 mm 4 m/s 747 mmHg 64%
12:00 +22°C° 0.2 mm 4 m/s 747 mmHg 63%
13:00 +22°C° 0.2 mm 4 m/s 747 mmHg 62%
14:00 +21°C° 0.2 mm 5 m/s 747 mmHg 61%
15:00 +20°C° 0.2 mm 4 m/s 747 mmHg 67%
16:00 +19°C° 0.2 mm 4 m/s 747 mmHg 73%
17:00 +18°C° 0.2 mm 3 m/s 747 mmHg 79%
18:00 +18°C° 0.2 mm 3 m/s 747 mmHg 82%
19:00 +17°C° 0.2 mm 3 m/s 748 mmHg 85%
20:00 +16°C° 0.2 mm 3 m/s 748 mmHg 88%
21:00 +16°C° 0.1 mm 3 m/s 748 mmHg 89%
22:00 +16°C° 0.1 mm 3 m/s 748 mmHg 90%
23:00 +16°C° 0.1 mm 2 m/s 748 mmHg 91%

22 Octobre, Jeudi

Heure Température Précipitation Vent Pression Humidité
00:00 +15°C° 0.1 mm 2 m/s 748 mmHg 91%
01:00 +15°C° 0.1 mm 2 m/s 748 mmHg 91%
02:00 +15°C° 0.1 mm 2 m/s 748 mmHg 91%
03:00 +15°C° 0 mm 2 m/s 748 mmHg 91%
04:00 +15°C° 0 mm 2 m/s 748 mmHg 91%
05:00 +14°C° 0 mm 2 m/s 749 mmHg 91%
06:00 +16°C° 0.4 mm 2 m/s 749 mmHg 87%
07:00 +17°C° 0.4 mm 3 m/s 749 mmHg 82%
08:00 +18°C° 0.4 mm 3 m/s 750 mmHg 77%
09:00 +19°C° 0.4 mm 3 m/s 750 mmHg 73%
10:00 +19°C° 0.4 mm 3 m/s 750 mmHg 68%
11:00 +20°C° 0.4 mm 4 m/s 750 mmHg 64%
12:00 +20°C° 0.1 mm 4 m/s 750 mmHg 63%
13:00 +20°C° 0.1 mm 4 m/s 750 mmHg 62%
14:00 +20°C° 0.1 mm 4 m/s 749 mmHg 61%
15:00 +19°C° 0.2 mm 4 m/s 750 mmHg 67%
16:00 +18°C° 0.2 mm 4 m/s 750 mmHg 73%
17:00 +15°C° 0.2 mm 4 m/s 750 mmHg 79%
18:00 +15°C° 0.1 mm 4 m/s 751 mmHg 81%
19:00 +15°C° 0.1 mm 4 m/s 751 mmHg 84%
20:00 +14°C° 0.1 mm 4 m/s 752 mmHg 87%
21:00 +14°C° 0.1 mm 4 m/s 752 mmHg 87%
22:00 +14°C° 0.1 mm 4 m/s 752 mmHg 87%
23:00 +14°C° 0.1 mm 4 m/s 752 mmHg 87%

23 Octobre, Vendredi

Heure Température Précipitation Vent Pression Humidité
00:00 +14°C° 0.2 mm 4 m/s 752 mmHg 88%
01:00 +14°C° 0.2 mm 4 m/s 752 mmHg 90%
02:00 +14°C° 0.2 mm 3 m/s 752 mmHg 91%
03:00 +14°C° 0.3 mm 4 m/s 753 mmHg 91%
04:00 +14°C° 0.3 mm 4 m/s 753 mmHg 90%
05:00 +14°C° 0.3 mm 4 m/s 753 mmHg 90%
06:00 +15°C° 0 mm 4 m/s 754 mmHg 84%
07:00 +17°C° 0 mm 4 m/s 754 mmHg 78%
08:00 +17°C° 0 mm 5 m/s 755 mmHg 72%
09:00 +19°C° 0.1 mm 5 m/s 755 mmHg 70%
10:00 +19°C° 0.1 mm 5 m/s 755 mmHg 68%
11:00 +20°C° 0.1 mm 5 m/s 755 mmHg 65%
12:00 +20°C° 0 mm 5 m/s 755 mmHg 65%
13:00 +20°C° 0 mm 6 m/s 756 mmHg 65%
14:00 +20°C° 0 mm 6 m/s 756 mmHg 65%
15:00 +17°C° 0 mm 6 m/s 756 mmHg 71%
16:00 +16°C° 0 mm 5 m/s 756 mmHg 77%
17:00 +15°C° 0 mm 5 m/s 757 mmHg 83%
18:00 +15°C° 0 mm 5 m/s 757 mmHg 86%
19:00 +14°C° 0 mm 4 m/s 758 mmHg 88%
20:00 +14°C° 0 mm 4 m/s 758 mmHg 91%
21:00 +13°C° 0 mm 4 m/s 758 mmHg 91%
22:00 +13°C° 0 mm 3 m/s 758 mmHg 92%
23:00 +13°C° 0 mm 3 m/s 758 mmHg 93%

24 Octobre, Samedi

Heure Température Précipitation Vent Pression Humidité
00:00 +12°C° 0 mm 3 m/s 758 mmHg 93%
01:00 +12°C° 0 mm 3 m/s 758 mmHg 93%
02:00 +12°C° 0 mm 3 m/s 758 mmHg 93%
03:00 +11°C° 0 mm 3 m/s 758 mmHg 93%
04:00 +11°C° 0 mm 3 m/s 758 mmHg 93%
05:00 +11°C° 0 mm 3 m/s 758 mmHg 94%
06:00 +12°C° 0 mm 3 m/s 758 mmHg 87%
07:00 +13°C° 0 mm 3 m/s 759 mmHg 81%
08:00 +16°C° 0 mm 3 m/s 759 mmHg 74%
09:00 +17°C° 0 mm 3 m/s 759 mmHg 66%
10:00 +19°C° 0 mm 2 m/s 759 mmHg 58%
11:00 +20°C° 0 mm 2 m/s 759 mmHg 50%
12:00 +20°C° 0 mm 3 m/s 758 mmHg 52%
13:00 +20°C° 0 mm 3 m/s 758 mmHg 55%
14:00 +19°C° 0 mm 4 m/s 758 mmHg 57%
15:00 +18°C° 0 mm 3 m/s 757 mmHg 64%
16:00 +16°C° 0 mm 3 m/s 757 mmHg 71%
17:00 +14°C° 0 mm 3 m/s 757 mmHg 78%
18:00 +13°C° 0 mm 3 m/s 757 mmHg 80%
19:00 +14°C° 0 mm 2 m/s 757 mmHg 82%
20:00 +13°C° 0 mm 2 m/s 757 mmHg 84%
21:00 +13°C° 0 mm 2 m/s 757 mmHg 84%
22:00 +13°C° 0 mm 2 m/s 757 mmHg 85%
23:00 +13°C° 0 mm 2 m/s 757 mmHg 86%

25 Octobre, Dimanche

Heure Température Précipitation Vent Pression Humidité
00:00 +13°C° 0 mm 2 m/s 756 mmHg 86%
01:00 +12°C° 0 mm 2 m/s 756 mmHg 87%
02:00 +12°C° 0 mm 2 m/s 755 mmHg 88%
03:00 +13°C° 0 mm 2 m/s 755 mmHg 88%
04:00 +13°C° 0 mm 2 m/s 755 mmHg 88%
05:00 +12°C° 0 mm 3 m/s 755 mmHg 88%
06:00 +13°C° 0 mm 3 m/s 755 mmHg 83%
07:00 +16°C° 0 mm 3 m/s 755 mmHg 78%
08:00 +17°C° 0 mm 3 m/s 756 mmHg 73%
09:00 +18°C° 0 mm 4 m/s 755 mmHg 69%
10:00 +19°C° 0 mm 5 m/s 755 mmHg 66%
11:00 +20°C° 0 mm 6 m/s 755 mmHg 62%
12:00 +20°C° 0.1 mm 6 m/s 755 mmHg 67%
13:00 +19°C° 0.1 mm 6 m/s 754 mmHg 72%
14:00 +18°C° 0.1 mm 7 m/s 754 mmHg 77%
15:00 +17°C° 0.1 mm 6 m/s 754 mmHg 78%
16:00 +16°C° 0.1 mm 6 m/s 755 mmHg 79%
17:00 +15°C° 0.1 mm 6 m/s 755 mmHg 80%
18:00 +15°C° 0 mm 6 m/s 755 mmHg 81%
19:00 +14°C° 0 mm 6 m/s 756 mmHg 81%
20:00 +13°C° 0 mm 6 m/s 756 mmHg 81%
21:00 +13°C° 0 mm 5 m/s 757 mmHg 83%
22:00 +12°C° 0 mm 5 m/s 757 mmHg 84%
23:00 +12°C° 0 mm 5 m/s 757 mmHg 85%
Voir plus

Nous avons besoin de votre consentement

Meteoprog et ses fournisseurs de services peuvent stocker et accéder à des données personnelles telles que des cookies, des identifiants d'appareils ou d'autres technologies similaires sur votre appareil et traiter ces données pour personnaliser le contenu et les publicités, ainsi que pour fournir des fonctionnalités de médias sociaux et analyser le trafic.

  • Stocker et/ou accéder à des informations sur votre appareil

    Des cookies, des identifiants d'appareils ou d'autres informations peuvent être stockés ou accessibles sur votre appareil aux fins indiquées ci-dessus.

  • Annonces et contenus personnalisés, mesure des annonces et des contenus, connaissance de l'audience et développement de produits

    Les annonces et le contenu peuvent être personnalisés en fonction d'un profil. D'autres données peuvent être ajoutées pour mieux personnaliser les annonces et le contenu. Les performances des publicités et du contenu peuvent être mesurées. Il est possible d'obtenir des informations sur le public qui a vu les publicités et le contenu. Ces données peuvent être utilisées pour développer ou améliorer l'expérience de l'utilisateur, les systèmes et les logiciels.

En cliquant sur "J'accepte", vous autorisez l'utilisation de cookies, des identifiants d'appareils, des balises web ou d'autres technologies similaires. Vos paramètres peuvent être modifiés dans le navigateur de votre appareil.

Dans certains cas, des intérêts légitimes peuvent être invoqués plutôt qu'un consentement. Vous pouvez en savoir plus à ce sujet dans notre Politique de confidentialité et de cookies.